QPF
0.03 0.03 0.04 0.05 0.05 0.04 0.02 0.04 0.05 0.06 0.07 0.07 0.08 0.08 0.07 0.04 0.04 0.04 0.03 0.05 0.06 0.06 0.06 0.06 0.07 0.08 0.08 0.09 0.07 0.08 0.08 0.07 0.07 0.09 0.09 0.07 0.05 0.05 0.04 0.04 0.03 0.03 0.04
0.06 0.05 0.04 0.04 0.06 0.05 0.03 0.02 0.03 0.05 0.07 0.08 0.08 0.08 0.06 0.05 0.05 0.05 0.04 0.05 0.05 0.06 0.07 0.07 0.09 0.11 0.10 0.10 0.08 0.08 0.08 0.09 0.09 0.10 0.10 0.11 0.09 0.08 0.05 0.04 0.03 0.03 0.03
0.06 0.05 0.04 0.04 0.07 0.07 0.04 0.03 0.04 0.04 0.06 0.07 0.07 0.08 0.08 0.05 0.04 0.04 0.05 0.05 0.04 0.06 0.07 0.07 0.09 0.11 0.10 0.10 0.11 0.10 0.11 0.11 0.09 0.10 0.11 0.11 0.09 0.08 0.05 0.03 0.03 0.02 0.02
0.05 0.04 0.04 0.04 0.05 0.07 0.07 0.05 0.05 0.03 0.04 0.05 0.07 0.08 0.09 0.06 0.04 0.03 0.03 0.03 0.03 0.04 0.06 0.07 0.08 0.09 0.10 0.11 0.11 0.12 0.14 0.11 0.09 0.08 0.10 0.12 0.11 0.08 0.05 0.03 0.02 0.02 0.02
0.04 0.04 0.04 0.03 0.03 0.05 0.09 0.07 0.05 0.03 0.03 0.05 0.06 0.08 0.09 0.07 0.05 0.03 0.03 0.03 0.03 0.04 0.04 0.06 0.08 0.09 0.10 0.11 0.10 0.11 0.13 0.10 0.09 0.10 0.10 0.11 0.11 0.10 0.07 0.04 0.03 0.02 0.02
0.04 0.04 0.04 0.04 0.03 0.04 0.06 0.07 0.06 0.04 0.04 0.06 0.09 0.10 0.09 0.07 0.05 0.04 0.03 0.04 0.04 0.05 0.04 0.05 0.06 0.07 0.09 0.10 0.09 0.09 0.09 0.09 0.09 0.09 0.09 0.10 0.11 0.12 0.09 0.06 0.03 0.03 0.03
0.06 0.05 0.04 0.03 0.03 0.04 0.06 0.08 0.09 0.07 0.05 0.08 0.10 0.11 0.09 0.07 0.05 0.04 0.04 0.04 0.05 0.06 0.05 0.04 0.05 0.05 0.06 0.09 0.09 0.08 0.08 0.09 0.10 0.09 0.08 0.08 0.07 0.08 0.08 0.07 0.05 0.04 0.04
0.07 0.06 0.05 0.04 0.04 0.05 0.06 0.09 0.10 0.09 0.07 0.08 0.09 0.11 0.08 0.07 0.04 0.04 0.04 0.04 0.05 0.06 0.05 0.04 0.04 0.04 0.04 0.05 0.04 0.06 0.08 0.08 0.09 0.10 0.10 0.08 0.07 0.07 0.06 0.06 0.06 0.05 0.05
0.06 0.06 0.06 0.05 0.04 0.04 0.04 0.07 0.09 0.09 0.08 0.09 0.11 0.11 0.06 0.04 0.03 0.03 0.03 0.04 0.05 0.06 0.05 0.04 0.03 0.03 0.03 0.03 0.03 0.04 0.05 0.06 0.08 0.10 0.13 0.11 0.08 0.07 0.07 0.07 0.07 0.07 0.08
0.06 0.06 0.06 0.06 0.05 0.05 0.06 0.07 0.07 0.08 0.09 0.10 0.12 0.11 0.07 0.03 0.02 0.02 0.01 0.02 0.03 0.05 0.04 0.03 0.02 0.03 0.02 0.02 0.03 0.03 0.04 0.05 0.05 0.08 0.11 0.13 0.12 0.08 0.08 0.07 0.06 0.07 0.08
0.06 0.06 0.05 0.05 0.06 0.07 0.07 0.07 0.06 0.07 0.07 0.09 0.10 0.10 0.09 0.05 0.04 0.02 0.01 0.01 0.01 0.02 0.03 0.03 0.02 0.02 0.03 0.02 0.02 0.02 0.02 0.02 0.03 0.04 0.05 0.08 0.08 0.08 0.08 0.07 0.07 0.08 0.10
0.04 0.05 0.04 0.04 0.05 0.06 0.06 0.06 0.06 0.06 0.05 0.07 0.08 0.10 0.08 0.06 0.05 0.04 0.02 0.01 0.01 0.01 0.01 0.01 0.01 0.02 0.04 0.04 0.03 0.03 0.02 0.02 0.02 0.02 0.03 0.05 0.07 0.08 0.07 0.07 0.08 0.09 0.10
0.05 0.05 0.05 0.06 0.05 0.05 0.04 0.06 0.07 0.08 0.07 0.07 0.06 0.07 0.07 0.06 0.05 0.04 0.03 0.02 0.01 0.01 0.01 0.01 0.01 0.02 0.03 0.05 0.05 0.06 0.06 0.05 0.03 0.02 0.03 0.03 0.05 0.07 0.07 0.08 0.08 0.08 0.08
0.05 0.05 0.05 0.06 0.05 0.05 0.05 0.06 0.06 0.07 0.08 0.09 0.07 0.07 0.07 0.07 0.05 0.04 0.02 0.03 0.02 0.02 0.01 0.01 0.01 0.02 0.02 0.03 0.04 0.05 0.04 0.03 0.03 0.03 0.03 0.03 0.04 0.06 0.07 0.07 0.07 0.07 0.07
0.05 0.05 0.06 0.05 0.04 0.05 0.05 0.05 0.05 0.05 0.06 0.06 0.05 0.06 0.05 0.05 0.04 0.04 0.03 0.03 0.03 0.02 0.02 0.02 0.02 0.03 0.02 0.02 0.03 0.05 0.05 0.04 0.04 0.04 0.03 0.03 0.03 0.04 0.05 0.05 0.04 0.05 0.05
0.07 0.07 0.07 0.06 0.05 0.05 0.03 0.03 0.03 0.04 0.06 0.07 0.05 0.05 0.04 0.04 0.04 0.04 0.03 0.03 0.03 0.03 0.02 0.02 0.03 0.04 0.04 0.02 0.03 0.05 0.06 0.05 0.03 0.03 0.02 0.02 0.02 0.02 0.04 0.04 0.03 0.03 0.05
0.07 0.07 0.06 0.06 0.05 0.04 0.03 0.03 0.03 0.03 0.04 0.04 0.05 0.05 0.04 0.05 0.04 0.03 0.03 0.03 0.03 0.03 0.02 0.02 0.03 0.04 0.04 0.03 0.03 0.03 0.04 0.04 0.03 0.03 0.02 0.01 0.01 0.01 0.01 0.02 0.03 0.02 0.03
0.06 0.04 0.04 0.04 0.04 0.03 0.03 0.02 0.02 0.02 0.02 0.03 0.02 0.02 0.03 0.03 0.02 0.03 0.03 0.03 0.03 0.02 0.02 0.02 0.03 0.03 0.04 0.03 0.02 0.02 0.03 0.03 0.03 0.03 0.02 0.02 0.01 0.01 0.01 0.02 0.02 0.03 0.02
0.03 0.02 0.01 0.01 0.01 0.01 0.01 0.02 0.02 0.02 0.02 0.03 0.03 0.02 0.02 0.02 0.02 0.02 0.03 0.03 0.03 0.02 0.02 0.02 0.02 0.02 0.03 0.02 0.02 0.01 0.02 0.02 0.02 0.02 0.02 0.02 0.01 0.01 0.01 0.02 0.02 0.03 0.03
0.02 0.01 0.01 0.01 0.01 0.01 0.01 0.01 0.02 0.01 0.02 0.02 0.03 0.03 0.04 0.03 0.03 0.03 0.03 0.02 0.03 0.02 0.02 0.02 0.02 0.01 0.02 0.01 0.01 0.01 0.01 0.01 0.02 0.02 0.02 0.02 0.02 0.02 0.02 0.01 0.02 0.02 0.03
0.02 0.02 0.01 0.01 0.01 0.01 0.01 0.01 0.01 0.01 0.01 0.02 0.02 0.02 0.03 0.04 0.03 0.03 0.02 0.02 0.02 0.02 0.01 0.01 0.01 0.01 0.01 0.01 0.01 0.01 0.00 0.01 0.01 0.01 0.01 0.01 0.02 0.02 0.02 0.02 0.02 0.02 0.02
0.03 0.03 0.03 0.02 0.02 0.01 0.01 0.01 0.01 0.01 0.01 0.01 0.01 0.01 0.02 0.02 0.02 0.02 0.02 0.01 0.01 0.01 0.01 0.01 0.01 0.00 0.00 0.01 0.01 0.01 0.01 0.01 0.01 0.01 0.01 0.01 0.01 0.02 0.03 0.03 0.03 0.03 0.03
0.03 0.03 0.03 0.03 0.02 0.01 0.02 0.02 0.02 0.01 0.01 0.01 0.01 0.01 0.01 0.01 0.01 0.02 0.02 0.01 0.01 0.01 0.01 0.01 0.01 0.01 0.01 0.02 0.01 0.01 0.01 0.01 0.01 0.01 0.01 0.01 0.01 0.01 0.02 0.03 0.03 0.03 0.03
0.06 0.06 0.05 0.04 0.03 0.02 0.02 0.02 0.03 0.02 0.01 0.01 0.01 0.01 0.01 0.01 0.01 0.01 0.01 0.01 0.00 0.01 0.02 0.01 0.01 0.01 0.01 0.02 0.04 0.03 0.03 0.02 0.02 0.02 0.01 0.01 0.01 0.01 0.01 0.02 0.02 0.03 0.03
0.04 0.04 0.04 0.03 0.03 0.03 0.03 0.03 0.03 0.02 0.01 0.00 0.00 0.01 0.01 0.01 0.02 0.02 0.01 0.01 0.01 0.02 0.03 0.03 0.02 0.01 0.01 0.02 0.02 0.05 0.05 0.04 0.04 0.04 0.03 0.02 0.01 0.01 0.02 0.02 0.01 0.02 0.03
0.03 0.03 0.03 0.03 0.02 0.02 0.02 0.02 0.02 0.02 0.01 0.01 0.01 0.02 0.02 0.00 0.00 0.01 0.01 0.02 0.02 0.02 0.01 0.01 0.01 0.02 0.01 0.01 0.02 0.03 0.04 0.04 0.05 0.05 0.04 0.03 0.03 0.03 0.02 0.03 0.03 0.02 0.02
MSLP
1015.48 1015.68 1015.86 1016.01 1016.13 1016.22 1016.29 1016.34 1016.38 1016.39 1016.38 1016.35 1016.28 1016.17 1016.04 1015.89 1015.74 1015.59 1015.47 1015.37 1015.28 1015.21 1015.12 1015.01 1014.87 1014.69 1014.49 1014.30 1014.16 1014.10 1014.16 1014.35 1014.68 1015.11 1015.62 1016.15 1016.66 1017.10 1017.47 1017.75 1017.97 1018.17 1018.38
1015.80 1016.01 1016.20 1016.35 1016.47 1016.55 1016.61 1016.63 1016.65 1016.64 1016.62 1016.57 1016.49 1016.38 1016.24 1016.07 1015.89 1015.72 1015.56 1015.42 1015.31 1015.21 1015.11 1014.98 1014.81 1014.60 1014.35 1014.10 1013.87 1013.71 1013.67 1013.78 1014.04 1014.43 1014.93 1015.49 1016.04 1016.55 1016.98 1017.32 1017.58 1017.80 1018.03
1016.08 1016.29 1016.49 1016.65 1016.77 1016.85 1016.89 1016.90 1016.90 1016.88 1016.84 1016.79 1016.71 1016.60 1016.46 1016.28 1016.07 1015.86 1015.66 1015.48 1015.33 1015.19 1015.06 1014.91 1014.72 1014.48 1014.20 1013.89 1013.59 1013.34 1013.21 1013.22 1013.40 1013.74 1014.21 1014.76 1015.34 1015.90 1016.38 1016.78 1017.10 1017.37 1017.62
1016.32 1016.54 1016.74 1016.91 1017.04 1017.12 1017.15 1017.15 1017.13 1017.09 1017.05 1017.00 1016.93 1016.83 1016.68 1016.49 1016.26 1016.01 1015.76 1015.52 1015.31 1015.12 1014.95 1014.77 1014.56 1014.30 1014.00 1013.65 1013.30 1012.99 1012.77 1012.69 1012.78 1013.05 1013.46 1013.99 1014.58 1015.16 1015.69 1016.14 1016.52 1016.84 1017.14
1016.52 1016.74 1016.95 1017.14 1017.27 1017.34 1017.37 1017.36 1017.32 1017.28 1017.24 1017.19 1017.13 1017.04 1016.90 1016.70 1016.45 1016.16 1015.84 1015.53 1015.25 1014.99 1014.76 1014.54 1014.31 1014.05 1013.73 1013.37 1013.00 1012.64 1012.36 1012.20 1012.20 1012.38 1012.73 1013.21 1013.77 1014.35 1014.90 1015.41 1015.83 1016.21 1016.56
1016.68 1016.90 1017.12 1017.31 1017.45 1017.53 1017.55 1017.52 1017.48 1017.43 1017.39 1017.35 1017.31 1017.24 1017.11 1016.91 1016.64 1016.30 1015.92 1015.53 1015.15 1014.81 1014.52 1014.25 1013.99 1013.72 1013.40 1013.05 1012.67 1012.29 1011.97 1011.75 1011.67 1011.77 1012.03 1012.43 1012.94 1013.50 1014.06 1014.58 1015.05 1015.48 1015.88
1016.78 1017.01 1017.24 1017.44 1017.58 1017.66 1017.67 1017.64 1017.58 1017.53 1017.50 1017.48 1017.46 1017.42 1017.32 1017.13 1016.84 1016.46 1016.01 1015.53 1015.06 1014.62 1014.24 1013.91 1013.62 1013.33 1013.02 1012.69 1012.32 1011.94 1011.60 1011.33 1011.19 1011.20 1011.37 1011.69 1012.13 1012.64 1013.17 1013.70 1014.19 1014.65 1015.10
1016.83 1017.06 1017.30 1017.51 1017.66 1017.74 1017.74 1017.70 1017.64 1017.59 1017.57 1017.58 1017.60 1017.59 1017.52 1017.35 1017.06 1016.64 1016.13 1015.57 1014.99 1014.46 1013.98 1013.57 1013.23 1012.92 1012.62 1012.30 1011.95 1011.59 1011.24 1010.94 1010.74 1010.67 1010.76 1010.98 1011.34 1011.78 1012.27 1012.78 1013.28 1013.77 1014.25
1016.81 1017.06 1017.31 1017.53 1017.69 1017.76 1017.77 1017.72 1017.66 1017.62 1017.61 1017.65 1017.71 1017.75 1017.72 1017.58 1017.29 1016.86 1016.30 1015.66 1014.99 1014.34 1013.77 1013.27 1012.87 1012.53 1012.21 1011.90 1011.57 1011.22 1010.87 1010.56 1010.31 1010.17 1010.17 1010.30 1010.56 1010.92 1011.35 1011.83 1012.33 1012.83 1013.35
1016.74 1017.01 1017.28 1017.51 1017.67 1017.75 1017.75 1017.70 1017.64 1017.61 1017.63 1017.70 1017.80 1017.89 1017.90 1017.80 1017.53 1017.09 1016.50 1015.80 1015.05 1014.31 1013.64 1013.06 1012.58 1012.19 1011.85 1011.54 1011.21 1010.86 1010.51 1010.17 1009.88 1009.67 1009.58 1009.62 1009.79 1010.07 1010.44 1010.88 1011.37 1011.88 1012.42
1016.64 1016.93 1017.22 1017.46 1017.63 1017.71 1017.70 1017.66 1017.60 1017.57 1017.61 1017.71 1017.86 1017.99 1018.05 1017.99 1017.75 1017.32 1016.71 1015.97 1015.17 1014.36 1013.60 1012.95 1012.40 1011.95 1011.57 1011.22 1010.88 1010.52 1010.15 1009.78 1009.44 1009.18 1009.01 1008.96 1009.04 1009.25 1009.56 1009.95 1010.42 1010.93 1011.49
1016.53 1016.84 1017.15 1017.40 1017.57 1017.65 1017.64 1017.59 1017.53 1017.51 1017.57 1017.69 1017.86 1018.03 1018.13 1018.11 1017.90 1017.50 1016.90 1016.16 1015.32 1014.47 1013.67 1012.94 1012.33 1011.83 1011.39 1011.00 1010.62 1010.23 1009.82 1009.41 1009.02 1008.70 1008.46 1008.34 1008.34 1008.47 1008.72 1009.07 1009.51 1010.02 1010.59
1016.41 1016.75 1017.07 1017.33 1017.50 1017.58 1017.57 1017.51 1017.45 1017.43 1017.48 1017.62 1017.80 1017.99 1018.12 1018.13 1017.97 1017.60 1017.03 1016.31 1015.49 1014.63 1013.80 1013.05 1012.39 1011.83 1011.34 1010.90 1010.46 1010.02 1009.57 1009.11 1008.67 1008.28 1007.98 1007.79 1007.73 1007.79 1007.98 1008.29 1008.70 1009.18 1009.75
1016.31 1016.67 1017.00 1017.26 1017.43 1017.50 1017.48 1017.42 1017.35 1017.32 1017.37 1017.49 1017.67 1017.87 1018.02 1018.05 1017.92 1017.60 1017.09 1016.41 1015.63 1014.81 1013.99 1013.24 1012.56 1011.96 1011.42 1010.93 1010.44 1009.94 1009.43 1008.92 1008.43 1007.99 1007.63 1007.39 1007.27 1007.28 1007.41 1007.66 1008.02 1008.48 1009.01
1016.22 1016.59 1016.92 1017.18 1017.35 1017.41 1017.38 1017.31 1017.23 1017.19 1017.22 1017.33 1017.50 1017.68 1017.82 1017.87 1017.77 1017.50 1017.05 1016.44 1015.74 1014.97 1014.21 1013.48 1012.81 1012.20 1011.64 1011.10 1010.56 1010.01 1009.45 1008.89 1008.36 1007.88 1007.48 1007.19 1007.02 1006.98 1007.06 1007.26 1007.55 1007.95 1008.42
1016.14 1016.51 1016.84 1017.10 1017.25 1017.31 1017.28 1017.21 1017.12 1017.06 1017.07 1017.16 1017.29 1017.45 1017.58 1017.62 1017.55 1017.31 1016.93 1016.41 1015.79 1015.11 1014.42 1013.75 1013.11 1012.52 1011.95 1011.39 1010.82 1010.24 1009.64 1009.05 1008.49 1007.98 1007.55 1007.23 1007.03 1006.94 1006.97 1007.10 1007.33 1007.64 1008.03
1016.04 1016.42 1016.74 1016.99 1017.14 1017.20 1017.18 1017.10 1017.02 1016.95 1016.95 1017.00 1017.10 1017.22 1017.32 1017.36 1017.29 1017.09 1016.76 1016.32 1015.79 1015.20 1014.60 1014.01 1013.43 1012.87 1012.32 1011.76 1011.18 1010.59 1009.98 1009.38 1008.82 1008.30 1007.87 1007.54 1007.32 1007.19 1007.17 1007.24 1007.38 1007.60 1007.89
1015.93 1016.30 1016.62 1016.86 1017.02 1017.08 1017.07 1017.01 1016.93 1016.87 1016.86 1016.89 1016.96 1017.04 1017.11 1017.12 1017.05 1016.87 1016.58 1016.20 1015.75 1015.26 1014.74 1014.22 1013.71 1013.20 1012.69 1012.15 1011.60 1011.02 1010.43 1009.85 1009.30 1008.80 1008.39 1008.06 1007.83 1007.69 1007.62 1007.62 1007.69 1007.81 1007.98
1015.78 1016.16 1016.47 1016.71 1016.87 1016.95 1016.96 1016.93 1016.87 1016.83 1016.82 1016.83 1016.88 1016.93 1016.96 1016.95 1016.86 1016.68 1016.42 1016.09 1015.70 1015.27 1014.83 1014.38 1013.93 1013.48 1013.01 1012.52 1012.00 1011.46 1010.91 1010.37 1009.86 1009.41 1009.03 1008.73 1008.50 1008.35 1008.26 1008.21 1008.20 1008.23 1008.31
1015.61 1015.98 1016.29 1016.54 1016.71 1016.81 1016.85 1016.85 1016.83 1016.81 1016.81 1016.83 1016.86 1016.89 1016.90 1016.85 1016.74 1016.56 1016.30 1015.99 1015.63 1015.25 1014.86 1014.46 1014.07 1013.67 1013.25 1012.80 1012.34 1011.85 1011.36 1010.87 1010.43 1010.03 1009.70 1009.44 1009.24 1009.10 1008.99 1008.91 1008.86 1008.82 1008.82
1015.40 1015.77 1016.08 1016.34 1016.52 1016.65 1016.72 1016.75 1016.77 1016.78 1016.81 1016.84 1016.88 1016.90 1016.88 1016.81 1016.68 1016.48 1016.22 1015.90 1015.56 1015.20 1014.84 1014.48 1014.12 1013.76 1013.38 1012.99 1012.57 1012.14 1011.72 1011.30 1010.93 1010.60 1010.33 1010.11 1009.95 1009.83 1009.73 1009.64 1009.57 1009.49 1009.44
1015.15 1015.52 1015.84 1016.10 1016.30 1016.44 1016.54 1016.61 1016.66 1016.72 1016.78 1016.84 1016.88 1016.90 1016.88 1016.80 1016.66 1016.44 1016.16 1015.84 1015.49 1015.14 1014.78 1014.44 1014.10 1013.76 1013.42 1013.07 1012.70 1012.33 1011.97 1011.62 1011.30 1011.04 1010.83 1010.67 1010.55 1010.46 1010.39 1010.32 1010.25 1010.17 1010.10
1014.86 1015.24 1015.56 1015.82 1016.02 1016.18 1016.30 1016.39 1016.49 1016.58 1016.67 1016.76 1016.84 1016.87 1016.86 1016.78 1016.62 1016.40 1016.11 1015.78 1015.43 1015.07 1014.71 1014.37 1014.04 1013.72 1013.40 1013.08 1012.75 1012.42 1012.11 1011.81 1011.55 1011.34 1011.18 1011.07 1011.00 1010.95 1010.92 1010.88 1010.84 1010.79 1010.74
1014.54 1014.91 1015.23 1015.48 1015.68 1015.85 1015.98 1016.10 1016.22 1016.34 1016.47 1016.60 1016.70 1016.77 1016.77 1016.71 1016.56 1016.34 1016.06 1015.73 1015.37 1015.00 1014.64 1014.30 1013.97 1013.66 1013.35 1013.05 1012.75 1012.45 1012.17 1011.91 1011.69 1011.51 1011.39 1011.32 1011.28 1011.28 1011.29 1011.30 1011.31 1011.30 1011.30
1014.18 1014.55 1014.85 1015.10 1015.30 1015.46 1015.60 1015.73 1015.87 1016.03 1016.19 1016.35 1016.49 1016.58 1016.62 1016.58 1016.46 1016.25 1015.98 1015.66 1015.31 1014.95 1014.60 1014.26 1013.94 1013.63 1013.34 1013.04 1012.75 1012.47 1012.20 1011.96 1011.75 1011.59 1011.49 1011.44 1011.43 1011.46 1011.52 1011.58 1011.64 1011.69 1011.74
1013.80 1014.16 1014.45 1014.69 1014.88 1015.03 1015.18 1015.32 1015.48 1015.66 1015.85 1016.04 1016.21 1016.34 1016.41 1016.39 1016.30 1016.13 1015.88 1015.58 1015.26 1014.92 1014.59 1014.26 1013.95 1013.66 1013.37 1013.08 1012.79 1012.51 1012.24 1011.99 1011.79 1011.63 1011.53 1011.49 1011.50 1011.56 1011.65 1011.76 1011.86 1011.97 1012.06
Thickness
5733 5732 5732 5731 5731 5731 5731 5730 5731 5730 5730 5730 5730 5730 5730 5730 5730 5730 5730 5730 5729 5729 5728 5727 5726 5725 5724 5722 5721 5720 5718 5717 5716 5714 5713 5712 5710 5709 5707 5706 5705 5704 5703
5730 5729 5728 5728 5728 5728 5727 5727 5727 5727 5727 5727 5727 5727 5727 5727 5727 5728 5728 5727 5727 5726 5726 5725 5724 5723 5722 5720 5719 5718 5716 5715 5714 5713 5711 5710 5708 5707 5705 5704 5703 5702 5701
5727 5726 5725 5725 5725 5724 5724 5723 5723 5724 5723 5724 5723 5723 5724 5724 5724 5724 5725 5724 5724 5724 5723 5722 5721 5720 5719 5718 5717 5716 5714 5713 5712 5711 5709 5707 5706 5704 5703 5702 5700 5699 5699
5724 5723 5722 5722 5721 5721 5721 5720 5719 5719 5719 5719 5719 5719 5720 5720 5721 5721 5721 5721 5721 5721 5720 5720 5719 5717 5716 5715 5714 5713 5712 5711 5710 5709 5707 5705 5703 5702 5701 5700 5698 5697 5696
5722 5721 5720 5719 5718 5718 5717 5717 5715 5715 5714 5714 5714 5715 5715 5716 5716 5717 5718 5718 5717 5717 5717 5716 5715 5714 5713 5712 5712 5711 5710 5708 5707 5707 5705 5703 5701 5700 5699 5698 5697 5695 5694
5720 5718 5717 5716 5715 5714 5713 5713 5711 5710 5710 5709 5710 5710 5710 5711 5712 5713 5713 5713 5713 5713 5713 5712 5711 5710 5710 5710 5709 5708 5708 5706 5705 5704 5703 5701 5699 5698 5697 5695 5694 5693 5692
5718 5716 5715 5713 5712 5711 5710 5709 5707 5706 5704 5705 5704 5703 5704 5706 5707 5708 5708 5708 5708 5708 5709 5708 5707 5707 5706 5706 5706 5705 5705 5704 5703 5702 5700 5699 5697 5696 5694 5693 5692 5691 5690
5715 5714 5713 5711 5710 5708 5706 5705 5704 5701 5700 5700 5699 5696 5694 5696 5700 5702 5703 5703 5704 5704 5704 5704 5703 5703 5703 5702 5702 5702 5702 5701 5700 5699 5698 5696 5695 5694 5692 5691 5689 5689 5688
5713 5711 5711 5709 5708 5706 5703 5702 5701 5699 5696 5696 5696 5694 5690 5688 5690 5694 5696 5698 5698 5699 5699 5699 5699 5699 5699 5698 5698 5698 5698 5697 5696 5696 5695 5693 5692 5691 5690 5688 5687 5687 5686
5710 5709 5708 5707 5705 5703 5701 5700 5699 5698 5696 5693 5692 5692 5691 5691 5687 5686 5689 5692 5693 5694 5694 5695 5695 5695 5694 5694 5694 5694 5694 5693 5693 5692 5691 5690 5689 5688 5687 5686 5685 5684 5684
5707 5707 5706 5704 5702 5700 5699 5698 5696 5695 5694 5692 5690 5689 5688 5687 5686 5684 5682 5685 5687 5689 5689 5689 5690 5690 5690 5690 5690 5691 5690 5690 5689 5688 5687 5687 5686 5686 5685 5683 5682 5682 5681
5703 5703 5703 5701 5700 5698 5696 5695 5694 5693 5692 5690 5688 5687 5685 5684 5682 5681 5679 5679 5680 5683 5684 5685 5685 5686 5686 5686 5686 5687 5687 5686 5685 5684 5683 5683 5683 5683 5682 5681 5680 5679 5678
5700 5700 5700 5698 5696 5695 5694 5693 5692 5690 5689 5687 5685 5683 5683 5682 5682 5680 5678 5675 5675 5677 5679 5681 5682 5681 5681 5681 5682 5683 5682 5682 5680 5680 5679 5679 5679 5679 5678 5677 5676 5675 5675
5699 5698 5697 5696 5694 5693 5691 5690 5688 5686 5685 5684 5683 5681 5680 5679 5679 5678 5676 5673 5670 5671 5673 5675 5677 5677 5677 5677 5677 5678 5678 5677 5676 5676 5676 5675 5675 5675 5674 5673 5672 5671 5670
5697 5696 5694 5693 5691 5690 5688 5686 5685 5683 5681 5680 5679 5678 5677 5676 5675 5675 5674 5673 5669 5666 5666 5669 5671 5673 5673 5673 5673 5673 5673 5673 5672 5671 5671 5671 5670 5670 5669 5668 5667 5666 5665
5694 5692 5691 5689 5688 5686 5685 5683 5681 5680 5678 5676 5675 5675 5674 5673 5672 5672 5671 5669 5668 5666 5663 5665 5666 5667 5667 5668 5668 5668 5668 5668 5667 5666 5666 5666 5665 5664 5664 5663 5662 5661 5660
5691 5688 5687 5686 5684 5683 5682 5680 5678 5677 5675 5674 5673 5672 5671 5670 5669 5668 5667 5665 5664 5663 5660 5661 5661 5662 5662 5662 5662 5662 5662 5662 5661 5661 5661 5661 5660 5659 5658 5658 5657 5656 5655
5687 5686 5684 5682 5681 5679 5678 5677 5675 5674 5672 5671 5670 5669 5668 5667 5666 5665 5663 5661 5660 5659 5658 5656 5656 5656 5657 5657 5656 5656 5656 5656 5656 5656 5656 5655 5655 5654 5653 5653 5652 5650 5650
5684 5682 5681 5679 5677 5676 5675 5673 5672 5670 5669 5668 5667 5666 5664 5663 5662 5660 5659 5658 5657 5656 5654 5652 5652 5651 5650 5650 5650 5650 5650 5649 5650 5650 5650 5649 5649 5648 5648 5647 5646 5645 5644
5680 5679 5677 5675 5674 5673 5672 5670 5669 5667 5666 5665 5664 5663 5661 5660 5659 5658 5656 5654 5653 5651 5649 5648 5646 5645 5644 5644 5643 5643 5643 5643 5643 5644 5643 5643 5643 5642 5642 5641 5640 5640 5639
5677 5675 5674 5672 5671 5670 5669 5667 5665 5664 5662 5661 5660 5659 5658 5657 5656 5655 5653 5651 5649 5647 5645 5643 5641 5640 5639 5638 5637 5637 5636 5636 5637 5636 5636 5637 5636 5636 5635 5635 5634 5634 5633
5673 5671 5669 5668 5667 5667 5666 5664 5662 5660 5658 5657 5655 5654 5653 5652 5651 5650 5649 5647 5646 5643 5641 5639 5637 5635 5634 5633 5632 5631 5630 5629 5630 5630 5629 5630 5630 5630 5629 5629 5628 5628 5628
5668 5667 5666 5664 5663 5662 5661 5660 5658 5656 5654 5652 5650 5649 5648 5647 5645 5644 5643 5641 5639 5638 5637 5635 5632 5631 5630 5629 5627 5626 5624 5623 5624 5624 5622 5624 5624 5623 5624 5623 5622 5622 5622
5664 5662 5661 5660 5658 5658 5656 5655 5653 5652 5649 5647 5646 5644 5643 5641 5640 5638 5637 5636 5634 5633 5631 5630 5628 5627 5626 5624 5622 5621 5619 5617 5617 5616 5615 5616 5617 5616 5617 5616 5616 5616 5615
5659 5658 5657 5655 5654 5653 5652 5650 5648 5646 5643 5642 5641 5639 5638 5636 5635 5633 5632 5630 5628 5627 5626 5624 5623 5622 5621 5619 5617 5615 5612 5611 5611 5611 5608 5609 5610 5609 5610 5610 5609 5608 5608
5654 5653 5651 5650 5649 5648 5647 5645 5643 5641 5638 5637 5635 5634 5632 5631 5630 5628 5626 5624 5623 5622 5621 5619 5617 5616 5615 5613 5611 5609 5608 5606 5605 5604 5603 5602 5602 5602 5604 5604 5603 5602 5601